Overview Statistics Trail Chart Weather Telemetry Raw packets
 

This is the latest recevied weather packets stored in our database for station/object K7MT-WX. If no packets are shown the sender has not sent any weather packets the latest 10 day(s).

<< 9 10 11 12 13 14 15 >>
Time Temp. Humidity Pressure Rain* Wind** Luminosity Snow
1788382296 19.44° C 44% 1007.8 hPa 0 mm - - -
1788381396 26.11° C 43% 1005.3 hPa 0 mm - - -
1788380496 26.11° C 45% 1005 hPa 0 mm - - -
1788379596 25.56° C 45% 1005.2 hPa 0 mm - - -
1788378696 23.33° C 52% 1005.5 hPa 0 mm - - -
1788377796 23.33° C 50% 1005.9 hPa 0 mm - - -
1788376896 23.33° C 50% 1006.2 hPa 0 mm - - -
1788375996 23.33° C 51% 1006.3 hPa 0 mm - - -
1788375096 22.78° C 53% 1006.7 hPa 0 mm - - -
1788374196 22.22° C 53% 1006.9 hPa 0 mm - - -
1788373296 21.67° C 56% 1007.2 hPa 0 mm - - -
1788372396 21.67° C 56% 1007.5 hPa 0 mm - - -
1788371496 21.67° C 57% 1007.5 hPa 0 mm - - -
1788370596 20.56° C 57% 1007.9 hPa 0 mm - - -
1788369696 21.11° C 57% 1008 hPa 0 mm - - -
1788368796 20° C 62% 1008.1 hPa 0 mm - - -
1788367896 19.44° C 67% 1008.4 hPa 0 mm - - -
1788366996 18.33° C 71% 1008.5 hPa 0 mm - - -
1788366096 17.78° C 73% 1008.6 hPa 0 mm - - -
1788365196 16.67° C 79% 1008.7 hPa 0 mm - - -
1788364296 15.56° C 81% 1008.9 hPa 0 mm - - -
1788363396 15° C 83% 1009 hPa 0 mm - - -
1788362496 14.44° C 87% 1009.2 hPa 0 mm - - -
1788361596 13.89° C 88% 1009.4 hPa 0 mm - - -
1788360696 13.33° C 90% 1009.6 hPa 0 mm - - -

* Rain latest hour (hover to see other rain measurements)
** Current wind speed in m/s (hover to see current wind gust speed)